EW5860 Weather Reports


time (UTC)temp
C
wind
direction
speed
KPH
gust
KPH
rain 1hr
cm
rain 24hr
cm
rain mn
cm
humidity
%
barometer
mb
20260510183038 22 246 1.6 12.9 0.00 0.20 0.03 62 1013.2
20260510181559 21 275 1.6 16.1 0.00 0.20 0.03 65 1013.4
20260510180054 21 318 3.2 9.7 0.00 0.20 0.03 63 1013.6
20260510174534 21 286 8.0 20.9 0.00 0.28 0.03 63 1013.6
20260510173033 22 257 3.2 25.7 0.00 0.28 0.03 62 1013.4
20260510171536 22 250 3.2 27.4 0.00 0.28 0.03 61 1013.3
20260510170032 22 335 4.8 17.7 0.00 0.28 0.03 61 1013.3
20260510164533 22 258 6.4 19.3 0.00 0.33 0.03 58 1013.3
20260510163030 22 263 3.2 17.7 0.00 0.33 0.03 57 1013.2
20260510161529 22 135 3.2 11.3 0.00 0.33 0.03 57 1013.0
20260510160035 22 192 0.0 4.8 0.00 0.33 0.03 66 1013.0
20260510154528 21 19 1.6 4.8 0.00 0.41 0.03 72 1013.0
20260510153023 21 64 1.6 3.2 0.00 0.41 0.03 74 1013.0
20260510151520 20 337 1.6 3.2 0.00 0.41 0.03 80 1013.2
20260510150014 19 52 0.0 3.2 0.00 0.41 0.03 86 1013.0
20260510144515 18 28 0.0 6.4 0.00 0.41 0.03 91 1013.2
20260510143008 16 339 0.0 3.2 0.00 0.41 0.03 95 1013.1
20260510141502 16 284 0.0 1.6 0.00 0.41 0.03 96 1013.3
20260510134558 14 46 0.0 1.6 0.00 0.41 0.03 97 1013.3
20260510133053 13 342 0.0 1.6 0.00 0.41 0.03 98 1013.3
20260510131550 13 342 0.0 0.0 0.00 0.41 0.03 98 1013.2
20260510130049 13 317 0.0 1.6 0.00 0.41 0.03 98 1013.2
20260510124556 13 9 0.0 0.0 0.00 0.41 0.03 98 1013.2
20260510123046 12 9 0.0 1.6 0.00 0.41 0.03 98 1013.2
20260510121542 12 202 0.0 0.0 0.00 0.41 0.03 98 1013.0
20260510120038 11 260 0.0 0.0 0.00 0.41 0.03 98 1012.8
20260510114539 11 130 0.0 0.0 0.00 0.41 0.03 98 1012.5
20260510113033 10 108 0.0 1.6 0.00 0.41 0.03 98 1012.3
20260510111533 10 140 0.0 1.6 0.00 0.41 0.03 98 1012.1
20260510110030 10 204 0.0 1.6 0.00 0.41 0.03 98 1012.0
20260510104530 10 115 0.0 1.6 0.03 0.41 0.03 98 1012.1
20260510103028 10 115 0.0 0.0 0.03 0.41 0.03 98 1012.2
20260510101526 10 115 0.0 1.6 0.03 0.41 0.03 98 1012.1
20260510100025 10 115 0.0 1.6 0.03 0.41 0.03 98 1011.9
20260510094539 10 113 0.0 0.0 0.00 0.38 0.00 98 1011.5
20260510093024 10 113 0.0 1.6 0.00 0.38 0.00 98 1011.5
20260510091530 10 113 0.0 1.6 0.00 0.38 0.00 98 1011.4
20260510090023 10 113 0.0 0.0 0.00 0.38 0.00 98 1011.2
20260510084522 10 113 0.0 0.0 0.00 0.38 0.00 98 1011.3
20260510083032 10 113 0.0 3.2 0.00 0.38 0.00 98 1011.5
20260510081520 10 244 0.0 1.6 0.00 0.38 0.00 98 1011.4
20260510080025 10 251 0.0 3.2 0.00 0.38 0.00 98 1011.6
20260510074519 10 271 0.0 3.2 0.00 0.38 0.00 98 1011.5
20260510073021 10 319 0.0 1.6 0.00 0.38 0.00 98 1011.5
20260510071518 10 319 0.0 0.0 0.00 0.38 0.00 97 1010.8
20260510070016 10 319 0.0 0.0 0.00 0.38 0.00 98 1010.9
20260510064515 10 319 0.0 1.6 0.00 0.38 0.00 97 1011.0
20260510063017 10 133 0.0 3.2 0.00 0.38 0.00 97 1011.0
20260510061514 10 234 0.0 1.6 0.00 0.38 0.00 97 1010.8
20260510060030 10 234 0.0 1.6 0.00 0.38 0.00 98 1010.5
20260510054512 10 113 0.0 1.6 0.00 0.38 0.00 98 1010.6
20260510053009 10 113 0.0 0.0 0.00 0.38 0.00 98 1010.7
20260510051507 9 113 0.0 0.0 0.00 0.38 0.00 97 1010.8
20260510050007 8 113 0.0 0.0 0.00 0.38 0.00 97 1010.8
20260510044505 8 113 0.0 0.0 0.00 0.38 0.00 97 1010.9
20260510043004 8 113 0.0 0.0 0.00 0.38 0.00 97 1011.0
20260510041502 8 114 0.0 0.0 0.00 0.38 0.00 97 1011.0
20260510040059 9 113 0.0 0.0 0.00 0.38 0.00 97 1011.1
20260510034558 9 113 0.0 0.0 0.00 0.38 0.38 97 1011.1
20260510033109 9 114 0.0 0.0 0.00 0.38 0.38 97 1011.0
20260510031556 9 113 0.0 0.0 0.00 0.38 0.38 97 1011.0
20260510024556 10 113 0.0 0.0 0.00 0.38 0.38 96 1010.8
20260510023053 10 113 0.0 0.0 0.00 0.38 0.38 96 1010.8
20260510021558 10 114 0.0 0.0 0.00 0.38 0.38 96 1010.7
20260510020052 10 113 0.0 0.0 0.00 0.38 0.38 96 1010.5
20260510014553 11 113 0.0 0.0 0.00 0.38 0.38 96 1010.4
20260510013051 11 113 0.0 0.0 0.00 0.38 0.38 96 1010.4
20260510011550 11 113 0.0 0.0 0.00 0.38 0.38 96 1010.3
20260510010049 12 113 0.0 0.0 0.00 0.38 0.38 95 1010.2
20260510004551 12 113 0.0 0.0 0.00 0.38 0.38 95 1010.0
20260510003049 12 113 0.0 1.6 0.00 0.38 0.38 95 1009.8
20260510001548 12 113 0.0 1.6 0.00 0.38 0.38 94 1009.9
20260510000048 13 113 0.0 3.2 0.00 0.38 0.38 93 1009.6
20260509234550 13 123 0.0 4.8 0.00 0.38 0.38 93 1009.7
20260509233047 14 132 0.0 4.8 0.00 0.38 0.38 93 1009.7
20260509231547 14 111 0.0 4.8 0.00 0.38 0.38 94 1009.7
20260509230049 15 118 0.0 1.6 0.00 0.38 0.38 95 1009.7
20260509224546 14 118 0.0 1.6 0.00 0.38 0.38 95 1009.5
20260509223044 15 119 0.0 1.6 0.00 0.38 0.38 96 1009.5
20260509221543 14 221 0.0 3.2 0.00 0.38 0.38 97 1009.6
20260509220043 13 248 0.0 1.6 0.00 0.38 0.38 96 1009.7
20260509214542 13 115 0.0 1.6 0.00 0.38 0.38 97 1009.5
20260509213048 13 327 0.0 1.6 0.00 0.38 0.38 97 1009.5
20260509211539 13 327 0.0 0.0 0.00 0.38 0.38 97 1009.8
20260509210053 13 327 0.0 1.6 0.00 0.38 0.38 96 1009.8
20260509204542 13 327 0.0 1.6 0.00 0.38 0.38 97 1009.9
20260509203041 13 226 0.0 1.6 0.03 0.38 0.38 97 1009.9
20260509201536 13 226 0.0 1.6 0.05 0.38 0.38 97 1010.0
20260509200035 12 265 0.0 1.6 0.05 0.38 0.38 96 1009.9
20260509194533 12 265 0.0 0.0 0.05 0.38 0.38 97 1010.2
20260509193034 12 265 0.0 1.6 0.08 0.36 0.36 96 1010.3
20260509191537 13 265 0.0 1.6 0.10 0.33 0.33 96 1010.6
20260509190027 12 265 0.0 1.6 0.13 0.33 0.33 96 1010.9
20260509184528 12 265 0.0 1.6 0.13 0.33 0.33 95 1011.1